Orbital Elements at Epoch 2459200.5 (2020-Dec-17.0) TDB
Reference: JPL 16 (heliocentric ecliptic J2000)
Element | Value | Uncertainty (1-sigma) | Units |
e | .1910596374252089 | 3.8409e-08 | |
a | 2.376765633156602 | 8.6621e-09 | au |
q | 1.922661653041005 | 9.2585e-08 | au |
i | .8065194023473704 | 4.9902e-06 | deg |
node | 311.0970963739262 | 0.0002845 | deg |
peri | 81.38062453864434 | 0.00028485 | deg |
M | 295.3099442725144 | 1.3397e-05 | deg |
tp | 2459440.998842286370 (2021-Aug-14.49884229) | 5.0368e-05 | TDB |
period | 1338.37546203113 3.66 | 7.3166e-06 2.003e-08 | d yr |
n | .2689828155199893 | 1.4705e-09 | deg/d |
Q | 2.8308696132722 | 1.0317e-08 | au |
|
| | Orbit Determination Parameters
Additional Information
|